Location: Haliburton Scout Reserve
(45.0900°N, 78.3200°W)
Time: 02:04:38
(UTC-04:00)

NANOSAT C BR1 - Pass Details

Date: 18 May 2022
Orbit: 583 x 601 km, 98.0° (Epoch: 27 June)

Event Time Altitude Azimuth Distance (km) Brightness Sun altitude
Rises 01:57:06 0° 35° (NE) 2,822 ? -24.5°
Reaches altitude 10° 02:00:58 10° 72° (ENE) 1,911 ? -24.3°
Maximum altitude 02:02:07 11° 89° (E) 1,843 ? -24.3°
Enters shadow 02:03:13 10° 104° (ESE) 1,899 ? -24.2°
